map of AFL home
AFL - Airport
Location
City:  Alta Floresta, Mato Grosso, Brazil
Name:Piloto Oswaldo Marques Dias Airport
ICAO:SBAT
IATA:AFL

Details
Type:Airport (Aerodrome, Airfield)
Use:Public/Civil
Latitude:951'58"S (-9.866091)
Longitude:5606'22"W (-56.106205)
Datum:WGS 1984
Elevation:947 ft (289 m)
Variation:18.01W (WMM2015v2 magnetic declination)
-0.14 annual change
Runways:1
Longest:8245 × 100 ft (2513 × 30.5 m), paved

Time
Time Zone:UTC-4 (DST-3)
Local Time:

Weather
METAR:SBAT 041400Z 31002KT 9999 FEW020 31/23 Q1015
TAF:SBAT 041000Z 0412/0424 09006KT 9999 FEW015 TN26/0413Z TX32/0418Z
BECMG 0416/0418 9999 SCT030
BECMG 0421/0423 06004KT BKN030 FEW035TCU
RMK PFF

Related Locations
Nearby:
Farthest:TAG: 12447 mi / 20032 km
Tagbilaran [Tagbilaran Airport], BOH, PH

Find:

   beyond  
but within

Other Information
Maps:
NOTAMs:
Links:
Sources:

  
  • flag of Brazil
  • flag of Mato Grosso
  

Sectional Chart

Flight Planning
at skyvector.com

Satellite Image

Google Maps Satellite view

 

Copyright © 2004-2019 Karl L. Swartz. All rights reserved.
The Great Circle Mapper name and logo are trademarks of the Great Circle Mapper.
All other trademarks mentioned herein belong to their respective owners.
Please see credits for attibutions and further copyright information.

  Follow gcmap on Facebook Follow gcmap on Twitter GCmap on LinkedIn

hCard Microformat

Geo Microformat